This is the latest recevied weather packets stored in our database for station/object KC2GYU. If no packets are shown the sender has not sent any weather packets the latest 10 day(s).
| Time | Temp. | Humidity | Pressure | Rain* | Wind** | Luminosity | Snow |
|---|---|---|---|---|---|---|---|
| 1778244526 | 13.89° C | 64% | 1015.6 hPa | 0 mm | - | 310 W/m² | - |
| 1778244223 | 13.89° C | 65% | 1015.5 hPa | 0 mm | - | 328 W/m² | - |
| 1778243922 | 13.89° C | 67% | 1015.6 hPa | 0 mm | - | 318 W/m² | - |
| 1778243620 | 13.33° C | 68% | 1015.6 hPa | 0 mm | - | 299 W/m² | - |
| 1778243316 | 13.89° C | 70% | 1015.5 hPa | 0 mm | - | 283 W/m² | - |
| 1778243013 | 13.33° C | 68% | 1015.7 hPa | 0 mm | - | 268 W/m² | - |
| 1778242710 | 13.89° C | 70% | 1015.4 hPa | 0 mm | - | 254 W/m² | - |
| 1778242408 | 12.78° C | 72% | 1015.4 hPa | 0 mm | - | 239 W/m² | - |
| 1778242106 | 12.78° C | 72% | 1015.1 hPa | 0 mm | - | 219 W/m² | - |
| 1778241803 | 12.78° C | 71% | 1015.2 hPa | 0 mm | - | 202 W/m² | - |
| 1778241501 | 12.78° C | 73% | 1015.2 hPa | 0 mm | - | 186 W/m² | - |
| 1778241198 | 12.22° C | 74% | 1015.4 hPa | 0 mm | - | 170 W/m² | - |
| 1778240894 | 11.67° C | 75% | 1015.2 hPa | 0 mm | - | 154 W/m² | - |
| 1778240591 | 11.67° C | 75% | 1015.2 hPa | 0 mm | - | 138 W/m² | - |
| 1778240288 | 11.67° C | 76% | 1015.1 hPa | 0 mm | - | 126 W/m² | - |
| 1778239986 | 11.11° C | 75% | 1015.3 hPa | 0 mm | - | 108 W/m² | - |
| 1778239682 | 11.11° C | 76% | 1015.1 hPa | 0 mm | - | 96 W/m² | - |
| 1778239380 | 11.11° C | 77% | 1014.7 hPa | 0 mm | - | 80 W/m² | - |
| 1778239075 | 11.11° C | 77% | 1015 hPa | 0 mm | - | 75 W/m² | - |
| 1778238773 | 10.56° C | 79% | 1014.8 hPa | 0 mm | - | 58 W/m² | - |
| 1778238470 | 10° C | 81% | 1014.6 hPa | 0 mm | - | 43 W/m² | - |
| 1778238168 | 9.44° C | 83% | 1014.7 hPa | 0 mm | - | 35 W/m² | - |
| 1778237867 | 8.89° C | 85% | 1014.7 hPa | 0 mm | - | 33 W/m² | - |
| 1778237564 | 8.89° C | 86% | 1014.7 hPa | 0 mm | - | 31 W/m² | - |
| 1778237262 | 8.89° C | 86% | 1014.8 hPa | 0 mm | - | 29 W/m² | - |
* Rain latest hour (hover to see other rain measurements)
** Current wind speed in m/s (hover to see current wind gust speed)